This demonstration page uses our WeatherBlox Daily Observations layout. Learn more.

Left ArrowRight Arrow

Hourly Observations for May 24, 2017

Temp ( °F °C ) Dew Point ( °F °C ) Humidity (%) Winds ( mph kmh ) Pressure ( in mb ) Visibility ( mi km ) Precip ( " mm )
12:56 am 00:56 Mostly Cloudy 50 9.9 47 8.2 89 89 NW 9 15 29.81 1010 10 16 0.00 0.00
1:56 am 01:56 Cloudy 51 10.3 47 8.1 86 86 NW 9 15 29.79 1009 10 16 0.00 0.00
2:56 am 02:56 Cloudy 51 10.3 46 7.9 85 85 NW 10 17 29.78 1009 10 16 0.00 0.00
3:56 am 03:56 Cloudy 50 10.1 46 7.9 86 86 NW 9 15 29.77 1008 10 16 0.00 0.00
4:56 am 04:56 Mostly Cloudy 50 10.1 46 7.7 85 85 NW 10 17 29.77 1008 10 16 0.00 0.00
5:56 am 05:56 Cloudy 50 10.2 46 7.6 84 84 NW 12 19 29.76 1008 10 16 0.00 0.00
6:56 am 06:56 Sunny 50 9.8 45 7.4 85 85 N 7 11 29.78 1008 10 16 0.00 0.00
7:56 am 07:56 Sunny 52 11.2 46 7.9 80 80 NNW 9 15 29.77 1008 10 16 0.00 0.00
8:56 am 08:56 Sunny 55 12.8 47 8.5 75 75 NNW 9 15 29.77 1008 10 16 0.00 0.00
9:56 am 09:56 Partly Cloudy 56 13.6 48 9 74 74 NNW 8 13 29.77 1008 10 16 0.00 0.00
10:56 am 10:56 Mostly Sunny 59 14.9 48 8.8 67 67 N 9 15 29.76 1008 10 16 0.00 0.00
11:56 am 11:56 Partly Cloudy 60 15.7 47 8.4 62 62 N 14 22 29.75 1008 10 16 0.00 0.00
12:56 pm 12:56 Mostly Cloudy 61 15.9 47 8.1 60 60 NNE 8 13 29.73 1007 10 16 0.00 0.00
1:56 pm 13:56 Cloudy 62 16.6 46 7.8 56 56 NNE 7 11 29.72 1006 10 16 0.00 0.00
2:56 pm 14:56 Mostly Cloudy 65 18.2 45 7.3 49 49 N 8 13 29.71 1006 10 16 0.00 0.00
3:56 pm 15:56 Mostly Cloudy 65 18.3 45 7.1 48 48 NE 5 7 29.70 1006 10 16 0.00 0.00
4:56 pm 16:56 Mostly Cloudy 66 18.8 45 7.2 47 47 NW 6 9 29.69 1005 10 16 0.00 0.00
5:56 pm 17:56 Cloudy 67 19.5 43 6.2 42 42 Calm 29.69 1005 10 16 0.00 0.00
6:56 pm 18:56 Mostly Sunny 65 18.6 42 5.4 42 42 Calm 29.67 1005 10 16 0.00 0.00
7:56 pm 19:56 Sunny 65 18.1 46 7.8 51 51 Calm 29.67 1005 10 16 0.00 0.00
8:56 pm 20:56 Clear 56 13.5 48 8.8 73 73 Calm 29.67 1005 10 16 0.00 0.00
9:56 pm 21:56 Clear 51 10.5 48 8.8 89 89 Calm 29.68 1005 10 16 0.00 0.00
10:56 pm 22:56 Clear 49 9.2 47 8.1 93 93 NE 3 6 29.69 1006 10 16 0.00 0.00
11:56 pm 23:56 Clear 47 8.4 46 7.6 95 95 Calm 29.68 1005 10 16 0.00 0.00

Powered by AerisWeather